Regional Weather Roundup
Issued by NWS Newport/Morehead, NC

Current Version | Previous Version | Text Only | Print | Product List | Glossary Off
Versions: 1 2 3 4 5 6 7 8 9 10 11 12 13 14 15 16 17 18 19 20 21 22 23 24 25 26 27 28 29 30 31 32 33 34 35 36 37 38 39 40 41 42 43 44 45 46 47 48 49 50
000 ASUS42 KMHX 210125 RWRMHX WEATHER ROUNDUP FOR EASTERN NORTH CAROLINA NATIONAL WEATHER SERVICE NEWPORT/MOREHEAD CITY NC 800 PM EST FRI JAN 20 2017 NOTE: "FAIR" INDICATES FEW OR NO CLOUDS BELOW 12,000 FEET WITH NO SIGNIFICANT WEATHER AND/OR OBSTRUCTIONS TO VISIBILITY NCZ015>017-031-032-045>047-102-103-210200- NORTH COAST CITY SKY/WX TMP DP RH WIND PRES REMARKS EDENTON CLOUDY 52 49 92 CALM 29.92R ELIZABETH CITY CLOUDY 49 48 97 N7 29.91R KITTY HAWK NOT AVBL MANTEO CLOUDY 51 51 100 N6 29.89R $$ NCZ045>047-081-094-103-104-210200- CENTRAL COAST CITY SKY/WX TMP DP RH WIND PRES REMARKS FRISCO PTCLDY 52 49 89 N5 29.85F FOG $$ NCZ095-097-098-100-101-210200- SOUTHERN COAST CITY SKY/WX TMP DP RH WIND PRES REMARKS BEAUFORT CLOUDY 61 59 93 NW3 29.87R CEDAR ISLAND NOT AVBL JACKSONVILLE CLOUDY 59 58 96 CALM 29.86S PINEY ISLAND CLOUDY N/A N/A N/A SE3 29.87R WILMINGTON CLOUDY 62 61 96 CALM 29.87S $$ NCZ011>013-027>030-043-044-078>080-089-090>093-098-210200- COASTAL PLAIN CITY SKY/WX TMP DP RH WIND PRES REMARKS AHOSKIE N/A 49 48 99 CALM 29.92S FOG CLINTON CLOUDY 58 57 99 CALM 29.89R ELIZABETHTOWN CLEAR 58 57 97 CALM 29.88R GOLDSBORO PTCLDY 55 55 100 N7 29.87R GREENVILLE CLOUDY 52 52 100 N6 29.93R FOG HAVELOCK PTCLDY 59 56 89 S6 29.87S KENANSVILLE CLOUDY 55 55 100 CALM 29.88R FOG KINSTON PTCLDY 55 54 94 N8 29.89R NEW BERN CLOUDY 55 54 96 NE6 29.88R RICHLANDS CLOUDY 55 55 100 CALM 29.87R ROCKY MOUNT CLOUDY 52 52 100 NE8 29.90S FOG WASHINGTON CLOUDY 49 48 96 NE6 N/A WHITEVILLE CLEAR 60 58 92 CALM 29.88R $$ AMZ130-135-150-152-154-156-158-170-250-252-270-ANZ085-086-088-633-658-670-210200- MARINE OBSERVATIONS STATION/POSITION TIME TEMP WIND PRES WAVE SWELL AIR SEA DIR/SP/G HT/PER HT/PER (UTC) (F) (DEG/KT/KT) (MB) (FT/S) (FT/S) CHESAPEAKE LIGHT NOT AVBL 64 E VA BEACH 0050 57 58 80/ 12/ 16 1011.0 4/11 3/11 DUCK 0100 49 45 330/ 12/ 16 1011.9 2 E DUCK 0100 45 N/A 4/12 2/12 OREGON INLET 0100 49 48 330/ 5/ 5 1011.6 13E OREGON INLT NOT AVBL HATTERAS CG 0100 51 55 350/ 4/ 5 1010.9 DIAMOND BUOY 0050 67 76 290/ 12/ 16 1010.7 5/13 3/13 CAPE LOOKOUT 0100 60 320/ 3/ 4 1011.1 BEAUFORT LAB 0100 60 51 350/ 2/ 2 1010.5 30 SE NEW RVR IN 0108 62 62 260/ 10/ 12 1011.6 30 SE NEW RVR IN 0043 62 N/A 4/13 3/13 27 SE WRIGHTSVLE 0108 67 71 230/ 12/ 17 1011.3 5 SE WRIGHTSVLE 0108 56 220/ 6/ 8 1011.5 225 S CAPE HAT 0050 72 70 200/ 8/ 10 1013.4 5/12 5/12 41 SE CHARLESTON 0050 69 69 220/ 10/ 12 1012.2 3/12 2/12 $$

USA.gov is the U.S. government's official web portal to all federal, state and local government web resources and services.